Location: Bretagne
(43.8474°N, 0.4650°W)
Time: 04:55:54
(UTC+00:00)

Radarsat Rocket - Visible Passes

Search period start: 21 April 2026 00:00
Search period end: 01 May 2026 00:00
Orbit: 933 x 1491 km, 100.5° (Epoch: 20 April)

Date Brightness Start Highest point End Pass type
(mag) Time Alt. Az. Time Alt. Az. Time Alt. Az.
21 Apr 5.6 19:13:43 10° S 19:22:08 60° WSW 19:30:38 10° NNW visible
21 Apr 7.4 21:08:55 10° WSW 21:11:36 12° W 21:14:19 10° WNW visible
22 Apr 7.2 20:53:38 10° WSW 20:58:08 15° W 21:02:40 10° NW visible
23 Apr 7.1 20:39:04 10° SW 20:44:43 19° W 20:50:23 10° NW visible
24 Apr 7.0 20:24:51 10° SW 20:31:19 23° W 20:37:47 10° NW visible
25 Apr 6.7 20:10:53 10° SSW 20:17:59 28° W 20:25:03 10° NW visible
26 Apr 6.5 19:57:05 10° SSW 20:04:40 34° W 20:12:12 10° NNW visible
27 Apr 6.2 19:43:24 10° SSW 19:51:23 40° W 19:59:14 10° NNW visible
28 Apr 5.9 19:29:52 10° S 19:38:08 48° W 19:46:14 10° NNW visible
29 Apr 5.6 19:16:26 10° S 19:24:55 57° WSW 19:33:09 10° NNW visible
29 Apr 7.4 21:12:25 10° W 21:14:19 11° W 21:16:12 10° WNW visible
30 Apr 7.2 20:56:44 10° WSW 21:00:51 14° W 21:04:57 10° WNW visible
